Weather History for Cincinnati, OH

Change the Weather History Date:

Thursday, July 18, 2013

  Actual Average Record
Temperature  
Mean Temperature 83 °F -  
Max Temperature 93 °F 88 °F 96 °F (1977)
Min Temperature 73 °F 65 °F 54 °F (2014)
Cooling Degree Days 18    
Growing Degree Days 33 (Base 50)    
Moisture  
Dew Point 73 °F    
Average Humidity 87    
Maximum Humidity 100    
Minimum Humidity 42    
Precipitation  
Precipitation 0.00 in - - ()
Sea Level Pressure  
Sea Level Pressure 30.16 in    
Wind  
Wind Speed 1 mph (SSW)    
Max Wind Speed 9 mph    
Max Gust Speed -    
Visibility 4 miles    
Events Fog    
Averages and records for this station are not official NWS values.
T = Trace of Precipitation, MM = Missing Value Source: NWS Daily Summary

Daily Weather History Graph

Daily Weather History Graph

Search for Another Location

Airport:

Trip Planner

Search our weather history database for the weather conditions in past years. The results will help you decide how hot, cold, wet, or windy it might be!

Date:

Astronomy

Jul. 18, 2013 Rise Set
Actual Time 6:26 AM EDT 9:00 PM EDT
Civil Twilight 5:55 AM EDT 9:31 PM EDT
Nautical Twilight 5:16 AM EDT 10:10 PM EDT
Astronomical Twilight 4:33 AM EDT 10:53 PM EDT
Moon 4:57 PM EDT (7/18) 2:15 AM EDT (7/18)
Length of Visible Light 15h 36m
Length of Day
14h 34m
Waxing Gibbous, 77% of the Moon is Illuminated
Jul 18
Waxing Gibbous
Jul 22
Full
Jul 29
Last Quarter
Aug 6
New
Aug 14
First Quarter

Hourly Weather History & Observations

Time (EDT) Temp. Heat Index Dew Point Humidity Pressure Visibility Wind Dir Wind Speed Gust Speed Precip Events Conditions
12:00 AM 75.2 °F - 75.2 °F 100% 30.22 in 2.0 mi Calm Calm - N/A   Clear
12:18 AM 75.2 °F - 75.2 °F 100% 30.22 in 1.8 mi Calm Calm - N/A   Clear
12:25 AM 75.2 °F - 75.2 °F 100% 30.22 in 2.0 mi Calm Calm - N/A   Clear
12:28 AM 73.4 °F - 73.4 °F 100% 30.22 in 0.8 mi Calm Calm - N/A   Mist
12:39 AM 73.4 °F - 73.4 °F 100% 30.22 in 0.5 mi Calm Calm - N/A Fog Fog
12:43 AM 73.4 °F - 73.4 °F 100% 30.22 in 1.2 mi Calm Calm - N/A   Partly Cloudy
12:53 AM 73.9 °F - 73.9 °F 100% 30.21 in 1.0 mi Calm Calm - N/A   Mist
12:59 AM 73.4 °F - 73.4 °F 100% 30.22 in 0.8 mi Calm Calm - N/A   Partly Cloudy
1:17 AM 75.2 °F - 75.2 °F 100% 30.21 in 1.8 mi Calm Calm - N/A   Scattered Clouds
1:33 AM 75.2 °F - 75.2 °F 100% 30.22 in 3.0 mi Calm Calm - N/A   Mostly Cloudy
1:53 AM 75.0 °F - 75.0 °F 100% 30.20 in 3.0 mi Calm Calm - N/A   Mostly Cloudy
2:13 AM 73.4 °F - 73.4 °F 100% 30.21 in 2.0 mi Calm Calm - N/A   Partly Cloudy
2:30 AM 73.4 °F - 73.4 °F 100% 30.20 in 1.2 mi Calm Calm - N/A   Clear
2:53 AM 73.9 °F - 73.9 °F 100% 30.18 in 1.8 mi Calm Calm - N/A   Clear
3:10 AM 73.4 °F - 73.4 °F 100% 30.20 in 1.0 mi Calm Calm - N/A   Mist
3:16 AM 73.4 °F - 73.4 °F 100% 30.19 in 0.2 mi Calm Calm - N/A Fog Fog
3:43 AM 73.4 °F - 73.4 °F 100% 30.19 in 0.5 mi Calm Calm - N/A Fog Fog
3:53 AM 73.9 °F - 73.9 °F 100% 30.17 in 0.8 mi Calm Calm - N/A   Mist
4:01 AM 73.4 °F - 73.4 °F 100% 30.19 in 1.2 mi Calm Calm - N/A   Mostly Cloudy
4:13 AM 73.4 °F - 73.4 °F 100% 30.19 in 2.5 mi Calm Calm - N/A   Overcast
4:20 AM 73.4 °F - 73.4 °F 100% 30.19 in 0.8 mi Calm Calm - N/A   Mist
4:53 AM 73.9 °F - 73.9 °F 100% 30.17 in 0.2 mi Calm Calm - N/A Fog Fog
5:53 AM 73.0 °F - 73.0 °F 100% 30.17 in 0.2 mi Calm Calm - N/A Fog Fog
6:53 AM 73.0 °F - 73.0 °F 100% 30.18 in 0.2 mi Calm Calm - N/A Fog Fog
7:53 AM 73.9 °F - 73.9 °F 100% 30.19 in 0.2 mi Calm Calm - N/A Fog Fog
8:00 AM 73.4 °F - 73.4 °F 100% 30.20 in 1.0 mi Calm Calm - N/A   Mist
8:11 AM 75.2 °F - 75.2 °F 100% 30.21 in 6.0 mi Calm Calm - N/A   Scattered Clouds
8:53 AM 78.1 °F - 75.9 °F 93% 30.19 in 10.0 mi Calm Calm - N/A   Clear
9:53 AM 82.9 °F 89.4 °F 73.9 °F 74% 30.19 in 10.0 mi Calm Calm - N/A   Clear
10:53 AM 88.0 °F 94.7 °F 72.0 °F 59% 30.18 in 10.0 mi Calm Calm - N/A   Clear
11:53 AM 88.0 °F 94.7 °F 72.0 °F 59% 30.17 in 10.0 mi SSE 5.8 mph - N/A   Clear
12:53 PM 90.0 °F 96.4 °F 71.1 °F 54% 30.15 in 10.0 mi SE 4.6 mph - N/A   Partly Cloudy
1:53 PM 91.0 °F 98.2 °F 72.0 °F 53% 30.14 in 10.0 mi South 3.5 mph - N/A   Clear
2:53 PM 91.0 °F 95.6 °F 69.1 °F 48% 30.12 in 10.0 mi WSW 9.2 mph - N/A   Clear
3:53 PM 93.0 °F 96.4 °F 66.9 °F 42% 30.08 in 10.0 mi WSW 8.1 mph - N/A   Scattered Clouds
4:53 PM 91.9 °F 96.9 °F 69.1 °F 47% 30.07 in 10.0 mi SW 3.5 mph - N/A   Partly Cloudy
5:53 PM 90.0 °F 94.5 °F 69.1 °F 50% 30.06 in 10.0 mi NW 4.6 mph - N/A   Clear
6:53 PM 91.9 °F 98.4 °F 71.1 °F 50% 30.03 in 10.0 mi Calm Calm - N/A   Clear
7:53 PM 88.0 °F 97.5 °F 75.0 °F 65% 30.03 in 10.0 mi South 3.5 mph - N/A   Clear
8:53 PM 81.0 °F 87.3 °F 75.9 °F 85% 30.04 in 9.0 mi South 4.6 mph - N/A   Clear
9:53 PM 81.0 °F 86.7 °F 75.0 °F 82% 30.05 in 8.0 mi Calm Calm - N/A   Clear
10:53 PM 77.0 °F - 73.9 °F 90% 30.06 in 6.0 mi Calm Calm - N/A   Clear
11:53 PM 78.1 °F - 75.0 °F 90% 30.06 in 5.0 mi Calm Calm - N/A   Clear